Weather History for KCWF - February, 2013

Change the Weather History Date:

Tuesday, February 19, 2013

  Actual Average Record
Temperature  
Mean Temperature 56 °F -  
Max Temperature 64 °F 65 °F 77 °F (2014)
Min Temperature 48 °F 50 °F 32 °F (2006)
Degree Days  
Heating Degree Days 9    
Growing Degree Days 6 (Base 50)    
Moisture  
Dew Point 41 °F    
Average Humidity 62    
Maximum Humidity 90    
Minimum Humidity 24    
Precipitation  
Precipitation 0.00 in - - ()
Sea Level Pressure  
Sea Level Pressure 30.15 in    
Wind  
Wind Speed 10 mph (NNE)    
Max Wind Speed 14 mph    
Max Gust Speed 20 mph    
Visibility 10 miles    
Events Thunderstorm    
Averages and records for this station are not official NWS values.
T = Trace of Precipitation, MM = Missing Value Source: NWS Daily Summary

Daily Weather History Graph

Daily Weather History Graph

Search for Another Location

Airport or City:

Trip Planner

Search our weather history database for the weather conditions in past years. The results will help you decide how hot, cold, wet, or windy it might be!

Date:

Astronomy

Feb. 19, 2013 Rise Set
Actual Time 6:48 AM CST 6:04 PM CST
Civil Twilight 6:24 AM CST 6:28 PM CST
Nautical Twilight 5:56 AM CST 6:56 PM CST
Astronomical Twilight 5:28 AM CST 7:24 PM CST
Moon 12:49 PM CST (2/19) 2:08 AM CST (2/19)
Length of Visible Light 12h 04m
Length of Day
11h 15m
Waxing Gibbous, 67% of the Moon is Illuminated
Feb 19
Waxing Gibbous
Feb 25
Full
Mar 4
Last Quarter
Mar 11
New
Mar 19
First Quarter

Hourly Weather History & Observations

Time (CST) Temp. Dew Point Humidity Pressure Visibility Wind Dir Wind Speed Gust Speed Precip Events Conditions
12:15 AM 59.9 °F 56.3 °F 88% 30.03 in 10.0 mi West 9.2 mph - N/A Thunderstorm Thunderstorm
12:35 AM 59.0 °F 55.9 °F 90% 30.03 in 10.0 mi WNW 8.1 mph - N/A   Overcast
12:55 AM 59.0 °F 55.4 °F 88% 30.02 in 10.0 mi NW 9.2 mph - N/A   Mostly Cloudy
1:15 AM 59.0 °F 54.7 °F 86% 30.03 in 10.0 mi NNW 11.5 mph 16.1 mph N/A   Mostly Cloudy
1:35 AM 59.0 °F 52.9 °F 80% 30.05 in 10.0 mi NNW 11.5 mph 19.6 mph N/A   Overcast
1:55 AM 58.3 °F 51.3 °F 77% 30.06 in 10.0 mi NNW 11.5 mph 16.1 mph N/A   Overcast
2:15 AM 57.9 °F 49.3 °F 73% 30.07 in 10.0 mi NNW 9.2 mph 17.3 mph N/A   Overcast
2:35 AM 57.2 °F 48.2 °F 72% 30.08 in 10.0 mi NNW 11.5 mph - N/A   Overcast
2:55 AM 56.1 °F 45.7 °F 68% 30.09 in 10.0 mi NNW 13.8 mph 17.3 mph N/A   Overcast
3:15 AM 55.2 °F 44.8 °F 68% 30.10 in 10.0 mi NNW 11.5 mph 19.6 mph N/A   Overcast
3:35 AM 54.1 °F 44.2 °F 69% 30.10 in 10.0 mi NNW 11.5 mph - N/A   Overcast
3:55 AM 53.6 °F 43.5 °F 69% 30.10 in 10.0 mi North 12.7 mph - N/A   Overcast
4:15 AM 52.3 °F 42.6 °F 69% 30.12 in 10.0 mi North 9.2 mph - N/A   Scattered Clouds
4:35 AM 51.3 °F 42.6 °F 72% 30.12 in 10.0 mi North 9.2 mph - N/A   Clear
4:55 AM 50.4 °F 42.3 °F 74% 30.13 in 10.0 mi North 9.2 mph - N/A   Clear
5:15 AM 50.0 °F 42.1 °F 74% 30.15 in 10.0 mi North 9.2 mph - N/A   Clear
5:55 AM 49.1 °F 41.5 °F 75% 30.17 in 10.0 mi North 8.1 mph - N/A   Clear
6:00 AM 48.2 °F 42.8 °F 82% 30.17 in 10.0 mi North 8.1 mph - N/A   Clear
6:45 AM 48.2 °F 42.8 °F 82% 30.17 in 10.0 mi North 8.1 mph - N/A   Clear
9:50 AM 55.4 °F 39.2 °F 54% 30.25 in 10.0 mi NNE 11.5 mph 18.4 mph N/A   Clear
10:45 AM 57.2 °F 37.4 °F 48% 30.26 in 10.0 mi NE 11.5 mph 18.4 mph N/A   Clear
11:50 AM 60.8 °F 37.4 °F 42% 30.24 in 10.0 mi NNE 6.9 mph - N/A   Clear
12:45 PM 64.4 °F 37.4 °F 37% 30.24 in 10.0 mi NNE 10.4 mph 18.4 mph N/A   Clear
1:50 PM 64.4 °F 30.2 °F 28% 30.22 in 10.0 mi NE 8.1 mph 18.4 mph N/A   Clear
2:50 PM 64.4 °F 30.2 °F 28% 30.20 in 10.0 mi NNE 8.1 mph 18.4 mph N/A   Clear
3:50 PM 64.4 °F 30.2 °F 28% 30.20 in 10.0 mi NE 11.5 mph 16.1 mph N/A   Clear
4:50 PM 64.4 °F 26.6 °F 24% 30.19 in 10.0 mi ENE 13.8 mph 18.4 mph N/A   Clear
6:55 PM 53.6 °F 37.4 °F 54% 30.21 in 10.0 mi East 4.6 mph - N/A   Clear
7:45 PM 53.6 °F 37.4 °F 54% 30.22 in 10.0 mi East 5.8 mph - N/A   Clear
8:50 PM 53.6 °F 37.4 °F 54% 30.22 in - East 5.8 mph - N/A   Clear
9:50 PM 51.8 °F 37.4 °F 58% 30.20 in 10.0 mi NE 8.1 mph - N/A   Clear
10:15 PM 50.9 °F 36.3 °F 57% 30.21 in 10.0 mi NE 8.1 mph - N/A   Clear
10:35 PM 50.2 °F 36.3 °F 59% 30.21 in 10.0 mi NE 6.9 mph - N/A   Clear
10:55 PM 50.4 °F 35.1 °F 56% 30.20 in 10.0 mi NE 10.4 mph - N/A   Clear
11:15 PM 50.4 °F 35.2 °F 56% 30.20 in 10.0 mi NE 8.1 mph - N/A   Clear
11:35 PM 50.0 °F 35.2 °F 57% 30.21 in 10.0 mi NE 4.6 mph - N/A   Clear
11:55 PM 49.8 °F 36.0 °F 59% 30.22 in 10.0 mi NE 4.6 mph - N/A   Clear